• En Estados Unidos
  • Lista de países
  • Para 7 días
  • Temperatura del agua
  • Mapa Satelital
  • El tiempo en el mapa
  • Informadores
  • user-avatar
    Iniciar sesión

    Tiempo cada hora Uige

    Hoy, 20 Enero, Sábado

    Tiempo Temperatura Precipitaciones Viento Presión Humedad
    00:00 +19°C° 0,7 mm 0 mps 690 mmHg 98%
    01:00 +19°C° 0 mm 0 mps 690 mmHg 99%
    02:00 +19°C° 0,4 mm 0 mps 690 mmHg 98%
    03:00 +19°C° 0,4 mm 0 mps 690 mmHg 98%
    04:00 +19°C° 0,4 mm 0 mps 690 mmHg 98%
    05:00 +19°C° 0,2 mm 0 mps 690 mmHg 98%
    06:00 +19°C° 0,2 mm 0 mps 690 mmHg 98%
    07:00 +20°C° 0 mm 0 mps 691 mmHg 97%
    08:00 +21°C° 0,5 mm 0 mps 691 mmHg 93%
    09:00 +22°C° 0,5 mm 0 mps 691 mmHg 89%
    10:00 +24°C° 0,5 mm 0 mps 691 mmHg 85%
    11:00 +26°C° 0,9 mm 1 mps 690 mmHg 85%
    12:00 +26°C° 0,9 mm 1 mps 690 mmHg 85%
    13:00 +27°C° 0,9 mm 1 mps 690 mmHg 85%
    14:00 +26°C° 1,4 mm 2 mps 689 mmHg 87%
    15:00 +26°C° 1,4 mm 2 mps 689 mmHg 89%
    16:00 +26°C° 1,4 mm 2 mps 689 mmHg 92%
    17:00 +24°C° 1,7 mm 2 mps 689 mmHg 93%
    18:00 +23°C° 1,7 mm 1 mps 689 mmHg 95%
    19:00 +22°C° 1,7 mm 1 mps 689 mmHg 97%
    20:00 +22°C° 2,1 mm 1 mps 690 mmHg 97%
    21:00 +22°C° 2,1 mm 1 mps 690 mmHg 97%
    22:00 +22°C° 2,1 mm 1 mps 691 mmHg 98%
    23:00 +22°C° 4,1 mm 1 mps 691 mmHg 98%

    Mañana, 21 Enero, Domingo

    Tiempo Temperatura Precipitaciones Viento Presión Humedad
    00:00 +22°C° 4,1 mm 1 mps 691 mmHg 98%
    01:00 +22°C° 4,1 mm 1 mps 691 mmHg 98%
    02:00 +21°C° 3,5 mm 1 mps 691 mmHg 98%
    03:00 +21°C° 3,5 mm 1 mps 690 mmHg 98%
    04:00 +21°C° 3,5 mm 1 mps 690 mmHg 98%
    05:00 +21°C° 1,4 mm 1 mps 691 mmHg 98%
    06:00 +19°C° 1,4 mm 0 mps 691 mmHg 98%
    07:00 +19°C° 1,4 mm 0 mps 691 mmHg 98%
    08:00 +19°C° 1,6 mm 0 mps 692 mmHg 98%
    09:00 +19°C° 1,6 mm 0 mps 692 mmHg 98%
    10:00 +19°C° 1,6 mm 0 mps 692 mmHg 97%
    11:00 +21°C° 1,7 mm 1 mps 692 mmHg 97%
    12:00 +21°C° 1,7 mm 1 mps 691 mmHg 97%
    13:00 +21°C° 1,7 mm 1 mps 691 mmHg 97%
    14:00 +22°C° 0,3 mm 1 mps 690 mmHg 94%
    15:00 +23°C° 0,3 mm 1 mps 690 mmHg 90%
    16:00 +24°C° 0,3 mm 1 mps 689 mmHg 87%
    17:00 +23°C° 0 mm 1 mps 689 mmHg 90%
    18:00 +22°C° 0 mm 1 mps 689 mmHg 93%
    19:00 +21°C° 0 mm 1 mps 690 mmHg 96%
    20:00 +21°C° 0 mm 1 mps 690 mmHg 97%
    21:00 +20°C° 0 mm 1 mps 690 mmHg 97%
    22:00 +20°C° 0 mm 1 mps 691 mmHg 97%
    23:00 +18°C° 0 mm 0 mps 691 mmHg 97%

    Pasado mañana, 22 Enero, Lunes

    Tiempo Temperatura Precipitaciones Viento Presión Humedad
    00:00 +18°C° 0 mm 0 mps 690 mmHg 97%
    01:00 +18°C° 0 mm 0 mps 690 mmHg 97%
    02:00 +18°C° 0 mm 0 mps 690 mmHg 97%
    03:00 +17°C° 0 mm 0 mps 690 mmHg 97%
    04:00 +17°C° 0 mm 0 mps 690 mmHg 97%
    05:00 +18°C° 0 mm 0 mps 690 mmHg 96%
    06:00 +18°C° 0 mm 0 mps 691 mmHg 95%
    07:00 +18°C° 0 mm 0 mps 691 mmHg 95%
    08:00 +22°C° 0 mm 1 mps 692 mmHg 86%
    09:00 +25°C° 0 mm 1 mps 692 mmHg 77%
    10:00 +27°C° 0 mm 1 mps 693 mmHg 69%
    11:00 +27°C° 0,4 mm 1 mps 692 mmHg 71%
    12:00 +27°C° 0,4 mm 2 mps 692 mmHg 73%
    13:00 +28°C° 0,4 mm 2 mps 691 mmHg 74%
    14:00 +27°C° 1 mm 2 mps 690 mmHg 78%
    15:00 +27°C° 1 mm 2 mps 690 mmHg 82%
    16:00 +26°C° 1 mm 2 mps 689 mmHg 86%
    17:00 +25°C° 0,8 mm 1 mps 689 mmHg 90%
    18:00 +23°C° 0,8 mm 1 mps 690 mmHg 94%
    19:00 +22°C° 0,8 mm 1 mps 690 mmHg 97%
    20:00 +22°C° 0,4 mm 1 mps 690 mmHg 98%
    21:00 +21°C° 0,4 mm 1 mps 691 mmHg 98%
    22:00 +21°C° 0,4 mm 1 mps 692 mmHg 98%
    23:00 +21°C° 0 mm 1 mps 691 mmHg 98%

    23 Enero, Martes

    Tiempo Temperatura Precipitaciones Viento Presión Humedad
    00:00 +20°C° 0 mm 1 mps 691 mmHg 98%
    01:00 +20°C° 0 mm 1 mps 690 mmHg 98%
    02:00 +20°C° 0 mm 1 mps 690 mmHg 98%
    03:00 +19°C° 0 mm 1 mps 690 mmHg 98%
    04:00 +19°C° 0 mm 1 mps 689 mmHg 98%
    05:00 +20°C° 0 mm 1 mps 690 mmHg 98%
    06:00 +20°C° 0 mm 1 mps 690 mmHg 97%
    07:00 +20°C° 0 mm 1 mps 691 mmHg 97%
    08:00 +22°C° 0 mm 1 mps 691 mmHg 86%
    09:00 +25°C° 0 mm 1 mps 691 mmHg 75%
    10:00 +27°C° 0 mm 1 mps 692 mmHg 64%
    11:00 +27°C° 0,2 mm 1 mps 691 mmHg 65%
    12:00 +27°C° 0,2 mm 2 mps 690 mmHg 66%
    13:00 +28°C° 0,2 mm 2 mps 690 mmHg 66%
    14:00 +28°C° 0,5 mm 2 mps 689 mmHg 68%
    15:00 +28°C° 0,5 mm 2 mps 689 mmHg 69%
    16:00 +28°C° 0,5 mm 2 mps 688 mmHg 71%
    17:00 +26°C° 0,8 mm 1 mps 688 mmHg 79%
    18:00 +24°C° 0,8 mm 1 mps 689 mmHg 87%
    19:00 +22°C° 0,8 mm 1 mps 689 mmHg 95%
    20:00 +22°C° 0,6 mm 1 mps 690 mmHg 95%
    21:00 +21°C° 0,6 mm 1 mps 690 mmHg 96%
    22:00 +19°C° 0,6 mm 0 mps 691 mmHg 96%
    23:00 +19°C° 0,5 mm 0 mps 690 mmHg 97%

    24 Enero, Miércoles

    Tiempo Temperatura Precipitaciones Viento Presión Humedad
    00:00 +21°C° 0,5 mm 1 mps 690 mmHg 97%
    01:00 +21°C° 0,5 mm 1 mps 690 mmHg 97%
    02:00 +21°C° 0,1 mm 1 mps 689 mmHg 97%
    03:00 +21°C° 0,1 mm 1 mps 689 mmHg 98%
    04:00 +21°C° 0,1 mm 1 mps 689 mmHg 98%
    05:00 +19°C° 0 mm 0 mps 690 mmHg 98%
    06:00 +19°C° 0 mm 0 mps 690 mmHg 98%
    07:00 +19°C° 0 mm 0 mps 691 mmHg 98%
    08:00 +20°C° 0,1 mm 0 mps 691 mmHg 92%
    09:00 +22°C° 0,1 mm 0 mps 691 mmHg 87%
    10:00 +23°C° 0,1 mm 0 mps 692 mmHg 81%
    11:00 +26°C° 0,2 mm 1 mps 691 mmHg 78%
    12:00 +26°C° 0,2 mm 1 mps 690 mmHg 75%
    13:00 +27°C° 0,2 mm 1 mps 689 mmHg 72%
    14:00 +27°C° 0,3 mm 1 mps 689 mmHg 71%
    15:00 +27°C° 0,3 mm 1 mps 689 mmHg 70%
    16:00 +27°C° 0,3 mm 1 mps 689 mmHg 69%
    17:00 +26°C° 0,2 mm 1 mps 689 mmHg 75%
    18:00 +24°C° 0,2 mm 1 mps 689 mmHg 81%
    19:00 +22°C° 0,2 mm 1 mps 689 mmHg 86%
    20:00 +22°C° 0,1 mm 1 mps 689 mmHg 87%
    21:00 +21°C° 0,1 mm 1 mps 690 mmHg 88%
    22:00 +21°C° 0,1 mm 1 mps 690 mmHg 89%
    23:00 +21°C° 0 mm 1 mps 690 mmHg 89%

    25 Enero, Jueves

    Tiempo Temperatura Precipitaciones Viento Presión Humedad
    00:00 +21°C° 0 mm 1 mps 689 mmHg 90%
    01:00 +21°C° 0 mm 1 mps 689 mmHg 90%
    02:00 +19°C° 0 mm 0 mps 689 mmHg 91%
    03:00 +19°C° 0 mm 0 mps 689 mmHg 91%
    04:00 +19°C° 0 mm 0 mps 689 mmHg 91%
    05:00 +19°C° 0,1 mm 0 mps 689 mmHg 91%
    06:00 +19°C° 0,1 mm 0 mps 690 mmHg 91%
    07:00 +20°C° 0,1 mm 0 mps 690 mmHg 90%
    08:00 +22°C° 0,1 mm 0 mps 691 mmHg 82%
    09:00 +26°C° 0,1 mm 1 mps 691 mmHg 74%
    10:00 +29°C° 0,1 mm 1 mps 691 mmHg 66%
    11:00 +29°C° 0,5 mm 1 mps 691 mmHg 65%
    12:00 +29°C° 0,5 mm 1 mps 690 mmHg 64%
    13:00 +30°C° 0,5 mm 2 mps 690 mmHg 63%
    14:00 +29°C° 1 mm 1 mps 689 mmHg 67%
    15:00 +29°C° 1 mm 1 mps 689 mmHg 71%
    16:00 +28°C° 1 mm 1 mps 688 mmHg 76%
    17:00 +26°C° 0,6 mm 1 mps 688 mmHg 81%
    18:00 +25°C° 0,6 mm 1 mps 689 mmHg 87%
    19:00 +23°C° 0,6 mm 1 mps 689 mmHg 92%
    20:00 +22°C° 0,3 mm 1 mps 689 mmHg 94%
    21:00 +22°C° 0,3 mm 1 mps 690 mmHg 95%
    22:00 +21°C° 0,3 mm 1 mps 690 mmHg 97%
    23:00 +21°C° 1,4 mm 1 mps 690 mmHg 98%
    Mostrar más